User: anonymous   Login
Location: Caltech
(34.1382°N, 118.1253°W)
Time: 06:06:47
(UTC-07:00)
Language:

Saudisat 1A - Orbit

View from above orbital plane
View from above orbital plane
View from above satellite
View from above satellite

Ground track
Ground track

The orbit data is extracted from the following two-line orbital elements,

1 26546U 00057B   14304.71084725  .00002788  00000-0  31552-3 0  4169
2 26546 064.5562 095.4395 0007926 313.6513 046.3937 14.88431032763714
Epoch (UTC): 31 October 2014 17:03:37
Eccentricity: 0.0007926
inclination: 64.5562°
perigee height: 597 km
apogee height: 608 km
right ascension of ascending node: 95.4395°
argument of perigee: 313.6513°
revolutions per day: 14.88431032
mean anomaly at epoch: 46.3937°
orbit number at epoch: 76371

The dashed part of the orbit path shows where the satellite is in the earth's shadow,  

DLR